Location: Copeville
(33.0796°N, 96.4155°W)
Time: 11:24:37
(UTC+00:00)

Cosmos 1805 Rocket - Pass Details

Date: 07 July 2022
Orbit: 605 x 629 km, 82.5° (Epoch: 10 August)

Event Time Altitude Azimuth Distance (km) Brightness Sun altitude
Exits shadow 09:52:21 28° 251° (WSW) 1,165 4.4 -16.5°
Maximum altitude 09:53:29 32° 281° (W) 1,062 4.4 -16.3°
Drops below altitude 10° 09:57:26 10° 345° (NNW) 1,985 6.5 -15.7°
Sets 09:59:51 0° 355° (N) 2,889 7.5 -15.3°
